sat.trackr.live / text

‹ back to catalog

STARLINK-2298

NORAD 48022 · 2021-024AX

PAYLOAD ACTIVE UNKNOWN

§ Identity

Operator
Country
US
Launch date
2021-03-24
Launch site
AFETR
Launch vehicle
Mass (kg)
RCS (m²)

Purposes: comms

External: N2YO · Heavens-Above · Gunter

§ Orbital elements

Epoch: 2026-09-20T04:44:21.073632Z

Period
90.96 min
Inclination
53.1132°
Eccentricity
0.0003489
Mean motion
15.83182931 rev/d
Perigee alt
319.1 km
Apogee alt
323.8 km
Semi-major
6,699.6 km
B*
6.0301e-4
RAAN
110.5187°
Arg perigee
176.8560°
Mean anomaly
183.2485°
Rev number
30,492

§ Raw data

STARLINK-22981 48022U 21024AX  26263.19746613  .00133931  00000+0  60301-3 0  99932 48022  53.1132 110.5187 0003489 176.8560 183.2485 15.83182931304923

JSON: /api/v1/satellites/48022 · /tle

For live sub-satellite position, see the globe view (requires WebGL).

§ Visibility from observer

Set your observer location to see the next 7 days of passes ≥ 10°. The values pass through the URL so the page stays shareable.

No JS? Fill the form by hand. The geolocation button needs JavaScript.